Location: Newark
(22.3060°N, 114.2134°E)
Time: 00:28:09
(UTC+00:00)

Vanguard 2 - Pass Details

Date: 07 August 2021
Orbit: 553 x 2937 km, 32.9° (Epoch: 27 September)

Event Time Altitude Azimuth Distance (km) Brightness Sun altitude
Rises 00:03:27 0° 297° (WNW) 2,989 10.1 27.6°
Reaches altitude 10° 00:05:26 10° 298° (WNW) 2,220 9.5 28.0°
Maximum altitude 00:10:32 81° 26° (NNE) 971 8.6 29.2°
Drops below altitude 10° 00:18:54 10° 114° (ESE) 3,550 12.0 31.1°
Sets 00:22:49 0° 115° (ESE) 4,938 12.5 32.0°
